Flag for Canada Weather past 2 weeks in Norfolk, Ontario, Canada

Now
66 °F

Mild.


Feels Like: 66 °F
Forecast: 64 / 77 °F
Wind: 3 mph from South

Location: Delhi CS

Current Time: Aug 20, 2014 at 5:43:06 AM

Latest Report: Aug 20, 2014 at 5:00 AM


Visibility: N/A

Pressure: 29.80 "Hg

Humidity: 96%

Dew point: 65 °F

Location of NorfolkLocation

Historic Weather in Norfolk — Graph

°F

Norfolk temperature yesterday

Maximum temperature yesterday: 79 °F (at 3:00 PM)
Minimum temperature yesterday: 47 °F (at 5:00 AM)
Average temperature yesterday: 64 °F

Past Weeks' High & Low Weather Summary

 TemperatureHumidityPressure
High82 °F (Aug 10, 6:00 PM)100% (Aug 6, 2:00 AM)30.16 "Hg (Aug 6, 2:00 AM)
Low47 °F (Aug 9, 6:00 AM)33% (Aug 6, 4:00 PM)29.66 "Hg (Aug 12, 4:00 AM)
Average64 °F76%29.95 "Hg
* Reported Aug 5 4:00 AM — Aug 20 4:00 AM, Norfolk, Weather by CustomWeather, © 2014

Note: Actual official high and low records may vary slightly from our data, if they occured in-between our weather recording intervals... More about our weather records

Advertising

Norfolk weather history for previous 24 hours

 ConditionsComfort  
Time TempWeatherWind HumidityBarometerVisibility
4:00 AM
Aug 20
66 °FMild.3 mph96%29.80 "HgN/A
3:00 AM65 °FMild.1 mph97%29.79 "HgN/A
2:00 AM64 °FMild.2 mph97%29.80 "HgN/A
1:00 AM64 °FMild.5 mph95%29.80 "HgN/A
12:00 AM63 °FMild.2 mph93%29.80 "HgN/A
11:00 PM
Aug 19
63 °FMild.7 mph89%29.78 "HgN/A
10:00 PM70 °FMild.9 mph53%29.84 "HgN/A
9:00 PM67 °FMild.3 mph72%29.79 "HgN/A
8:00 PM70 °FMild.3 mph64%29.80 "HgN/A
7:00 PM73 °FMild.5 mph63%29.80 "HgN/A
6:00 PM76 °FMild.6 mph58%29.81 "HgN/A
5:00 PM77 °FWarm.8 mph56%29.81 "HgN/A
4:00 PM78 °FWarm.7 mph54%29.80 "HgN/A
3:00 PM79 °FWarm.5 mph56%29.80 "HgN/A
2:00 PM78 °FWarm.3 mph51%29.82 "HgN/A
1:00 PM76 °FMild.1 mph48%29.83 "HgN/A
12:00 PM71 °FMild.5 mph56%29.84 "HgN/A
11:00 AM69 °FMild.2 mph65%29.85 "HgN/A
10:00 AM67 °FMild.1 mph69%29.85 "HgN/A
9:00 AM60 °FCool.3 mph86%29.84 "HgN/A
8:00 AM54 °FCool.2 mph100%29.85 "HgN/A
7:00 AM48 °FCool.2 mph100%29.84 "HgN/A
6:00 AM49 °FCool.2 mph100%29.84 "HgN/A
5:00 AM47 °FCool.1 mph93%29.83 "HgN/A
Weather by CustomWeather, © 2014

See weather overviewHow to use our weather pages